Tracking 31027 objects as of 19-Jul-2025
HD Live streaming from Space Station
objects crossing your sky now

STARLINK-3637

Track STARLINK-3637 now!
10-day predictions
STARLINK-3637 is classified as:


NORAD ID: 51799
Int'l Code: 2022-017AH
Perigee: 546.0 km
Apogee: 547.8 km
Inclination: 53.2 °
Period: 95.4 minutes
Semi major axis: 6917 km
RCS: Unknown
Launch date: February 25, 2022
Source: United States (US)
Launch site: AIR FORCE WESTERN TEST RANGE (AFWTR)
Your satellite tracking list
Your tracking list is empty




NASA's NSSDC Master Catalog

Two Line Element Set (TLE):
1 51799U 22017AH  25199.33247479  .00000841  00000-0  70905-4 0  9996
2 51799  53.2187 321.1931 0001244  83.6989 276.4145 15.08837462188542
Source of the keplerian elements: AFSPC